www.pogodaiklimat.ru

Погода и климат >> Архив погоды >> Россия >> Северная Осетия >> Моздок


ПОГОДА в Моздоке

  • Прогноз погоды в Моздоке
  • Монитор погоды в Моздоке

АРХИВ ПОГОДЫ в Моздоке

Время (UTC), дата Ветер
(напр.,м/с)
 
Видим.   Явления Облачность Т
(С)
Тd
(С)
f
(%)
Тe
(С)
Тes
(С)
Комфортность P
(гПа)
Po
(гПа)
Тmin
(С)
Tmax
(С)
R
(мм)
R24
(мм)
S
(см)
00 15.09 штиль 0 20 км ясно +12.4 +9.8 84 +12 +12 1018.4 1002.1
03 15.09 штиль 0 20 км 3/0
[Ci sp]
+11.2 +11.0 99 +10 +10 1018.9 1002.5 +11.1
06 15.09 З 2 20 км 4/0
[Ci fib]
+20.7 +10.5 52 +23 +29 комфорт 1018.8 1002.9
09 15.09 Ю 2 20 км 8/0
[Ci fib]
+26.9 +9.2 33 +27 +37 жарко 1017.5 1001.9
12 15.09 ЮЗ 1 20 км 9/3 1000 м
[Cu med, cong Ac trans Ci fib]
+28.1 +6.7 26 +27 +30 жарко 1016.5 1001.0
15 15.09 штиль 0 20 км 9/4 600 м
[Sc Ac trans]
+24.5 +9.5 39 +25 +25 комфорт 1017.2 1001.5 +28.9
18 15.09 штиль 0 20 км 9/4 600 м
[Sc Ac trans]
+20.8 +9.4 48 +22 +22 комфорт 1019.2 1003.3
21 15.09 ЮЗ 1 20 км 1/0
[Ci sp]
+15.8 +10.9 73 +17 +17 1019.7 1003.5
00 16.09 штиль 0 20 км ясно +13.9 +10.2 78 +14 +14 1020.4 1004.1
03 16.09 штиль 0 20 км ясно +11.4 +9.2 86 +11 +11 1020.3 1003.8 +11.4
06 16.09 З 1 20 км ясно +18.3 +8.2 52 +20 +27 1019.2 1003.2 +11.3
09 16.09 В 2 20 км 4/0
[Ci]
+24.2 +7.5 34 +24 +35 комфорт 1016.0 1000.3
12 16.09 В 2 20 км 8/0
[Cs]
+27.3 +6.0 26 +27 +32 жарко 1013.5 998.0
15 16.09 штиль 0 20 км 4/0
[Ac trans Ci fib]
+23.2 +9.8 43 +25 +25 комфорт 1012.3 996.6 +27.4
18 16.09 С 1 20 км 4/0
[Ac trans Ci fib]
+18.6 +11.2 62 +20 +20 1012.8 996.9
21 16.09 штиль 0 20 км 1/0
[Ci fib]
+16.6 +11.0 69 +17 +17 1012.8 996.8
00 17.09 СЗ 1 20 км 6/0
[Ac trans Ci fib]
+16.4 +11.0 70 +17 +17 1012.3 996.3
03 17.09 З 1 20 км 10/10 600 м
[Sc]
+16.0 +11.3 74 +17 +17 1012.7 996.6 +15.8
06 17.09 СЗ 3 20 км 4/0
[Ac trans]
+22.0 +9.6 45 +24 +27 комфорт 1012.6 996.8
09 17.09 СЗ 1 20 км 8/0
[Ac cast]
+26.3 +8.3 32 +26 +32 жарко 1010.7 995.2
12 17.09 СЗ 3 20 км 10/10 600 м
[Sc]
+22.1 +10.8 49 +24 +24 комфорт 1011.3 995.6
15 17.09 штиль 0 20 км 9/9 600 м
[Sc]
+20.8 +12.8 60 +23 +23 комфорт 1011.7 995.9 +26.8
18 17.09 штиль 0 20 км 4/0
[Ac trans]
+16.9 +13.6 81 +17 +17 1012.5 996.5
21 17.09 штиль 0 20 км 3/0
[Ci sp]
+15.8 +12.7 82 +16 +16 1012.5 996.4
00 18.09 штиль 0 20 км ясно +14.8 +14.4 97 +14 +14 1013.5 997.4
03 18.09 штиль 0 20 км ясно +14.3 +10.6 78 +14 +14 1014.7 998.5 +14.0
06 18.09 З 1 20 км ясно +22.2 +7.2 38 +23 +30 комфорт 1015.3 999.5
09 18.09 СВ 1 20 км ясно +25.8 +5.9 28 +25 +39 комфорт 1014.2 998.6
12 18.09 В 2 20 км ясно +28.2 +6.7 26 +27 +33 жарко 1012.1 996.7
15 18.09 В 1 20 км ясно +24.8 +7.1 32 +25 +25 комфорт 1011.7 996.1 +28.3
18 18.09 штиль 0 20 км ясно +17.0 +9.7 62 +17 +17 1012.1 996.1
21 18.09 СЗ 1 20 км ясно +14.9 +9.3 69 +15 +15 1012.8 996.7
00 19.09 З 1 20 км ясно +14.2 +10.2 77 +15 +15 1015.0 998.8
03 19.09 ЮЗ 1 20 км ясно +13.1 +9.3 78 +13 +13 1019.0 1002.7 +12.9
06 19.09 штиль 0 20 км 8/0
[Ac cast]
+19.7 +8.2 47 +20 +24 1020.2 1004.2
09 19.09 ЮВ 2 20 км 10/10 1000 м
[Cu Sc]
+21.5 +8.6 44 +23 +23 комфорт 1019.6 1003.7
12 19.09 В 1 20 км 8/8 1000 м
[Cu med, cong]
+24.0 +8.4 37 +25 +26 комфорт 1018.9 1003.1
15 19.09 СВ 2 20 км 8/0
[Ac cast Ci fib]
+21.5 +8.4 43 +23 +23 комфорт 1019.4 1003.6 +24.0
18 19.09 В 1 20 км ясно +16.5 +9.3 62 +17 +17 1020.1 1003.9
21 19.09 В 1 20 км ясно +13.4 +1.2 43 +14 +14 1019.2 1002.9
00 20.09 СВ 2 20 км ясно +11.8 +2.2 52 +11 +11 1018.6 1002.2
03 20.09 штиль 0 20 км ясно +8.9 +4.4 73 +8 +8 1019.0 1002.4 +8.9
06 20.09 штиль 0 20 км 1/0
[Ac trans]
+16.7 +7.8 56 +17 +24 1017.4 1001.3 +8.9
09 20.09 ЮВ 3 20 км 6/6 1000 м
[Cu med, cong]
+22.3 +10.1 46 +24 +28 комфорт 1013.9 998.2
12 20.09 В 3 20 км 9/9 600 м
[Sc]
+22.0 +11.9 53 +24 +25 комфорт 1010.9 995.2
15 20.09 В 3 20 км 8/8 600 м
[Sc]
+21.0 +11.1 53 +23 +23 комфорт 1009.8 994.0 +22.7
18 20.09 В 3 20 км 6/6 600 м
[Sc]
+18.9 +9.3 54 +20 +20 1009.0 993.2
21 20.09 СВ 1 20 км 10/10 600 м
[Sc]
+18.0 +9.9 59 +19 +19 1009.6 993.7
00 21.09 СЗ 5 20 км 10/10 600 м
[Sc]
+13.8 +9.2 74 +12 +12 1011.3 995.2
03 21.09 СЗ 1
{11}
20 км 10/10 600 м
[Cb cap]
+10.8 +8.0 83 +11 +11 1015.0 998.6 +10.7
06 21.09 СЗ 3 10 км слаб. ливневой дождь 10/10 600 м
[Cb cap]
+10.2 +9.8 97 +8 +8 1016.9 1000.4 +10.1
09 21.09 СЗ 2 10 км слаб. ливневой дождь 10/10 600 м
[Cb cap]
+10.5 +10.3 99 +9 +9 1017.7 1001.3
12 21.09 ЮЗ 1 10 км слаб. ливневой дождь 10/10 600 м
[Cb cap]
+10.6 +10.6 100 +10 +10 1018.4 1002.0
15 21.09 З 2 н/о {ливн. осадки} н/о +11.7 +9.5 86 +11 +11 1018.2 1001.8 +11.9 6
18 21.09 ЮЗ 1 20 км {ливн. осадки} 10/10 600 м
[Sc]
+11.1 +8.9 86 +11 +11 1019.4 1003.0
21 21.09 З 2 20 км {ливн. осадки} 10/10 600 м
[Sc]
+9.8 +8.9 94 +8 +8 1021.3 1004.8

 

Местоположение метеостанции Моздок (Северная Осетия, Россия): широта 43.73 долгота 44.67 высота над уровнем моря 136 м.

В архиве по умолчанию представлена погода в Моздоке за последнюю неделю. Архивные данные за месяц целиком и за предыдущие месяцы, начиная с января 2011 года, Вы можете получить, выбрав интересующий диапазон дат из раскрывающегося списка и нажав кнопку "Ввод!".


*Определитесь, кто Вы:
робот инопланетянин человек

Внимание! Время в таблицах - всемирное. Для получения местного времени необходимо прибавить поправку, которая равна 3 ч.

Смотрите также архив погоды в соседних городах и на ближайших метеорологических станциях:

Погода в Прохладный (Кабардино-Балкария, Россия) (50 км)
Погода в Наурской (Чечня, Россия) (53 км)
Погода в Рощино (Ставропольский край, Россия) (63 км)
Погода в Назрани (Ингушетия, Россия) (66 км)
Погода в Владикавказе (Северная Осетия, Россия) (78 км)
Погода в Алагире (Северная Осетия, Россия) (81 км)
Погода в Нальчике (Кабардино-Балкария, Россия) (87 км)
Погода в Грозном (Чечня, Россия) (100 км)
Погода в Зеленокумске (Ставропольский край, Россия) (100 км)
Погода в Терекли-Мектебе (Дагестан, Россия) (107 км)

Пояснения к столбцам:

Ветер - указаны скорость ветра в м/с - средняя за 10 мин, порывы в срок и между сроками (в фигурных скобках) и направление, откуда дует ветер: С - северный, СВ - северо-восточный, В - восточный, ЮВ - юго-восточный, Ю - южный, ЮЗ - юго-западный, З - западный, СЗ - северо-западный.
Видимость - горизонтальная дальность видимости в метрах или километрах. При видимости от 1 до 10 км при отсутствии осадков обычно наблюдается дымка, при ухудшении видимости до 1 км и менее - туман. В сухую погоду видимость может ухудшаться дымом, пылью или мглою.
Явления - указаны атмосферные явления, наблюдавшиеся в срок или в последний час перед сроком; фигурными скобками обозначены явления, наблюдавшиеся между сроками (за 1-3 часа до срока); квадратными скобками обозначены град или гололедные отложения с указанием их диаметра в мм.
Облачность - указаны через наклонную черту общая и нижняя облачность в баллах и высота нижней границы облаков в метрах; квадратными скобками обозначены формы облаков: Ci - перистые, Cs - перисто-слоистые, Cc - перисто-кучевые, Ac - высококучевые, As - высокослоистые, Sc - слоисто-кучевые, Ns - слоисто-дождевые, Cu - кучевые, Cb - кучево-дождевые. Подробнее классификацию облаков см. в Атласе облаков (PDF).
T - Температура воздуха - температура, измеренная на высоте 2 м над землей.
Td - Температура точки росы - температура, при понижении до которой содержащийся в воздухе водяной пар достигнет насыщения.
f - Относительная влажность воздуха - влажноcть воздуха, измеренная на высоте 2 м над землей.
Te - Эффективная температура - температура, которую ощущает одетый по сезону человек в тени. Характеристика душности погоды. При расчете учитывается влияние влажности воздуха и скорости ветра на теплоощущения человека.
Tes - Эффективная температура на солнце - температура, которую ощущает человек, с поправкой на солнечный нагрев. Характеристика знойности погоды. Зависит от высоты солнца над горизонтом, облачности и скорости ветра. Ночью, в пасмурную погоду, а также при ветре 12 м/с и более поправка равна нулю.
P - Атмосферное давление - приведенное к уровню моря атмосферное давление.
Po - Атмосферное давление - измеренное на уровне метеостанции атмосферное давление.
Tmin - Минимальная температура - минимум температуры воздуха на высоте 2 м над землей.
Tmax - Максимальная температура - максимум температуры воздуха на высоте 2 м над землей.
R - Количество осадков - Количество выпавших осадков за период времени, мм. При наведении курсора мыши на число - период времени, за который выпало указанное количество осадков.
R24 - Количество осадков - Количество выпавших осадков за 24 часа, мм.
S - Снежный покров - Высота снежного покрова, см. При наведении курсора мыши на число - состояние снежного покрова и степень покрытия местности в баллах.